Lid_Strength_Index
3 2 2 3 3 2 1 2 4 7 7 5 6 5 5 5 6 6 7 6 6 7 6 6 5 5 6 6 6 6 6 6 6 6 7 7 6 6
3 3 3 3 4 3 1 2 2 4 5 4 4 5 4 4 6 7 7 6 7 7 7 7 6 6 6 6 7 7 7 7 7 7 7 7 7 6
3 3 3 2 3 4 2 2 2 2 4 4 4 4 5 6 7 6 6 7 7 7 8 8 7 7 7 7 7 7 7 7 7 7 7 7 7 7
3 3 3 2 3 4 4 3 2 2 3 4 4 4 5 5 7 7 6 6 6 7 8 8 8 8 8 8 8 8 8 7 7 7 7 7 7 7
3 3 3 2 3 3 4 4 2 1 2 3 4 4 5 4 6 7 7 7 5 5 8 8 8 8 8 8 8 8 8 8 8 8 8 8 8 8
2 2 2 2 3 3 4 4 4 2 3 3 3 4 5 4 5 6 7 6 7 5 7 8 9 9 8 8 8 8 8 8 9 9 9 9 9 8
1 1 2 2 5 4 4 5 5 4 3 3 3 4 5 6 6 6 6 6 6 6 8 9 10 10 10 9 9 8 9 9 9 9 9 9 9 9
1 2 2 5 6 9 9 8 5 5 4 3 3 3 3 4 5 5 6 8 8 5 6 7 8 9 9 10 10 9 9 9 9 9 9 9 9 9
1 1 2 1 5 4 9 10 9 9 7 2 2 2 3 3 4 5 6 6 7 6 6 7 6 8 7 7 8 9 10 10 10 9 9 9 9 9
1 1 1 1 2 3 4 5 5 6 6 5 2 2 2 2 2 3 4 5 6 6 6 9 7 7 7 7 8 8 9 9 9 10 9 9 9 9
1 1 1 1 4 8 3 4 5 5 7 7 6 5 5 6 4 4 7 8 9 9 7 10 10 10 9 9 7 8 9 9 9 10 9 9 9 10
1 1 8 2 7 10 4 4 5 5 5 4 6 9 9 7 9 5 5 7 11 13 9 10 13 11 13 11 9 8 10 10 10 10 10 10 10 10
2 2 1 9 9 10 8 3 4 4 8 6 5 5 5 6 6 8 6 6 10 10 8 9 12 12 14 14 12 10 10 12 12 12 10 10 10 10
2 1 1 8 9 11 9 7 10 11 6 7 8 7 7 6 5 7 7 6 6 6 6 6 11 11 13 16 14 13 12 11 11 13 12 11 11 11
2 3 6 10 10 12 11 11 13 7 6 7 7 7 6 5 5 7 7 6 7 6 6 6 8 9 10 10 13 14 13 12 11 10 11 12 11 13
9 7 10 11 11 8 12 12 7 6 6 6 6 7 7 6 6 6 8 8 10 9 6 6 6 7 10 10 10 11 13 12 13 11 11 11 11 10
8 6 9 9 8 7 7 9 8 8 8 8 9 9 8 7 6 7 7 8 10 11 10 8 7 7 8 9 12 12 13 12 12 11 11 11 12 10
10 7 9 9 9 8 9 10 10 11 9 8 9 9 9 8 8 8 7 10 10 11 11 11 11 11 12 10 10 11 11 12 11 11 11 11 10 10
9 8 10 10 10 9 10 11 11 11 9 10 10 11 11 10 12 12 11 12 13 13 12 12 12 12 13 14 11 12 11 11 11 12 11 10 11 10
12 13 12 11 11 11 11 12 13 12 12 12 12 13 13 13 14 13 13 13 13 14 13 11 11 11 12 14 14 13 13 11 11 11 12 12 11 12
15 14 13 13 13 12 13 13 13 14 14 14 13 13 14 13 14 13 13 14 13 12 12 13 12 13 10 10 13 13 13 13 12 12 13 13 13 13
16 16 16 15 15 14 13 14 14 14 14 14 14 14 14 14 14 13 13 13 14 13 13 13 14 13 13 14 15 15 14 13 12 12 13 13 14 15
16 16 16 16 16 16 15 15 15 15 15 14 14 14 15 14 14 14 15 15 15 15 15 14 14 14 14 14 14 14 14 14 13 13 13 12 12 13